Time,TemperatureF,DewpointF,PressureIn,WindDirection,WindDirectionDegrees,WindSpeedMPH,WindSpeedGustMPH,Humidity,HourlyPrecipIn,Conditions,Clouds,dailyrainin,SoftwareType,DateUTC
2013-10-03 00:02:00,68.0,-99.9,29.85,NW,319,0.0,3.0,-999,-99.99,,,-99.99,,2013-10-03 07:02:00,
2013-10-03 00:50:00,68.0,-99.9,29.84,WNW,294,2.0,2.0,-999,-99.99,,,-99.99,,2013-10-03 07:50:00,
2013-10-03 00:52:00,68.0,-99.9,29.85,NW,324,2.0,3.0,-999,-99.99,,,-99.99,,2013-10-03 07:52:00,
2013-10-03 01:22:00,68.0,-99.9,29.84,WNW,294,2.0,2.0,-999,-99.99,,,-99.99,,2013-10-03 08:22:00,
2013-10-03 01:32:00,68.0,-99.9,29.84,WNW,294,2.0,2.0,-999,-99.99,,,-99.99,,2013-10-03 08:32:00,
2013-10-03 03:23:00,67.0,-99.9,29.84,WNW,303,1.0,3.0,-999,-99.99,,,-99.99,,2013-10-03 10:23:00,
2013-10-03 03:33:00,67.0,-99.9,29.84,WNW,303,1.0,3.0,-999,-99.99,,,-99.99,,2013-10-03 10:33:00,
2013-10-03 03:52:00,67.0,-99.9,29.84,WNW,303,1.0,3.0,-999,-99.99,,,-99.99,,2013-10-03 10:52:00,
2013-10-03 04:12:00,66.0,-99.9,29.83,WNW,284,1.0,2.0,-999,-99.99,,,-99.99,,2013-10-03 11:12:00,
2013-10-03 04:23:00,66.0,-99.9,29.83,WNW,284,1.0,2.0,-999,-99.99,,,-99.99,,2013-10-03 11:23:00,
2013-10-03 04:33:00,66.0,-99.9,29.83,WNW,284,1.0,2.0,-999,-99.99,,,-99.99,,2013-10-03 11:33:00,
2013-10-03 04:52:00,66.0,-99.9,29.83,WSW,253,1.0,3.0,-999,-99.99,,,-99.99,,2013-10-03 11:52:00,
2013-10-03 05:22:00,66.0,-99.9,29.81,WSW,241,1.0,2.0,-999,-99.99,,,-99.99,,2013-10-03 12:22:00,
2013-10-03 05:32:00,66.0,-99.9,29.81,WSW,241,1.0,2.0,-999,-99.99,,,-99.99,,2013-10-03 12:32:00,
2013-10-03 05:52:00,66.0,-99.9,29.83,WSW,241,2.0,2.0,-999,-99.99,,,-99.99,,2013-10-03 12:52:00,
2013-10-03 06:22:00,66.0,-99.9,29.83,WSW,245,1.0,2.0,-999,-99.99,,,-99.99,,2013-10-03 13:22:00,
2013-10-03 06:52:00,65.0,-99.9,29.82,West,274,1.0,2.0,-999,-99.99,,,-99.99,,2013-10-03 13:52:00,
2013-10-03 07:52:00,65.0,-99.9,29.82,North,353,1.0,2.0,-999,-99.99,,,-99.99,,2013-10-03 14:52:00,
2013-10-03 08:22:00,66.0,-99.9,29.83,SW,230,0.0,2.0,-999,-99.99,,,-99.99,,2013-10-03 15:22:00,
2013-10-03 08:54:00,66.0,-99.9,29.83,WNW,293,0.0,2.0,-999,-99.99,,,-99.99,,2013-10-03 15:54:00,
2013-10-03 09:23:00,67.0,-99.9,29.81,NE,43,1.0,5.0,-999,-99.99,,,-99.99,,2013-10-03 16:23:00,
2013-10-03 09:33:00,67.0,-99.9,29.81,NE,43,1.0,5.0,-999,-99.99,,,-99.99,,2013-10-03 16:33:00,
2013-10-03 09:53:00,68.0,-99.9,29.84,South,181,2.0,5.0,-999,-99.99,,,-99.99,,2013-10-03 16:53:00,
2013-10-03 10:20:00,70.0,-99.9,29.83,ENE,71,3.0,8.0,-999,-99.99,,,-99.99,,2013-10-03 17:20:00,
2013-10-03 10:22:00,69.0,-99.9,29.82,SSE,154,5.0,7.0,-999,-99.99,,,-99.99,,2013-10-03 17:22:00,
2013-10-03 10:52:00,70.0,-99.9,29.83,ENE,71,3.0,8.0,-999,-99.99,,,-99.99,,2013-10-03 17:52:00,
2013-10-03 11:02:00,70.0,-99.9,29.83,ENE,71,3.0,8.0,-999,-99.99,,,-99.99,,2013-10-03 18:02:00,
2013-10-03 11:12:00,70.0,-99.9,29.83,ENE,71,3.0,8.0,-999,-99.99,,,-99.99,,2013-10-03 18:12:00,
2013-10-03 11:52:00,72.0,-99.9,29.82,SSW,201,3.0,10.0,-999,-99.99,,,-99.99,,2013-10-03 18:52:00,
2013-10-03 12:01:00,72.0,-99.9,29.82,SSW,201,3.0,10.0,-999,-99.99,,,-99.99,,2013-10-03 19:01:00,
2013-10-03 12:22:00,73.0,-99.9,29.81,South,171,7.0,14.0,-999,-99.99,,,-99.99,,2013-10-03 19:22:00,
2013-10-03 12:53:00,74.0,-99.9,29.79,SSW,209,5.0,12.0,-999,-99.99,,,-99.99,,2013-10-03 19:53:00,
2013-10-03 13:12:00,74.0,-99.9,29.79,SSW,208,6.0,11.0,-999,-99.99,,,-99.99,,2013-10-03 20:12:00,
2013-10-03 13:22:00,74.0,-99.9,29.79,SSW,208,6.0,11.0,-999,-99.99,,,-99.99,,2013-10-03 20:22:00,
2013-10-03 13:52:00,74.0,-99.9,29.79,SW,217,5.0,13.0,-999,-99.99,,,-99.99,,2013-10-03 20:52:00,
2013-10-03 14:12:00,75.0,-99.9,29.76,SW,215,6.0,12.0,-999,-99.99,,,-99.99,,2013-10-03 21:12:00,
2013-10-03 14:20:00,75.0,-99.9,29.75,South,183,7.0,14.0,-999,-99.99,,,-99.99,,2013-10-03 21:20:00,
2013-10-03 14:22:00,75.0,-99.9,29.76,SW,215,6.0,12.0,-999,-99.99,,,-99.99,,2013-10-03 21:22:00,
2013-10-03 14:54:00,75.0,-99.9,29.75,South,183,7.0,14.0,-999,-99.99,,,-99.99,,2013-10-03 21:54:00,
2013-10-03 15:04:00,75.0,-99.9,29.75,South,183,7.0,14.0,-999,-99.99,,,-99.99,,2013-10-03 22:04:00,
2013-10-03 15:13:00,75.0,-99.9,29.75,South,183,7.0,14.0,-999,-99.99,,,-99.99,,2013-10-03 22:13:00,
2013-10-03 16:43:00,74.0,-99.9,29.75,SW,216,7.0,12.0,-999,-99.99,,,-99.99,,2013-10-03 23:43:00,
2013-10-03 16:53:00,74.0,-99.9,29.75,SW,216,7.0,12.0,-999,-99.99,,,-99.99,,2013-10-03 23:53:00,
2013-10-03 17:22:00,74.0,-99.9,29.75,SW,224,7.0,13.0,-999,-99.99,,,-99.99,,2013-10-04 00:22:00,
2013-10-03 17:52:00,73.0,-99.9,29.76,SW,216,5.0,9.0,-999,-99.99,,,-99.99,,2013-10-04 00:52:00,
2013-10-03 18:02:00,73.0,-99.9,29.76,SW,216,5.0,9.0,-999,-99.99,,,-99.99,,2013-10-04 01:02:00,
2013-10-03 18:12:00,73.0,-99.9,29.76,SW,216,5.0,9.0,-999,-99.99,,,-99.99,,2013-10-04 01:12:00,
2013-10-03 18:22:00,73.0,-99.9,29.76,SW,216,5.0,9.0,-999,-99.99,,,-99.99,,2013-10-04 01:22:00,
2013-10-03 18:50:00,70.0,-99.9,29.79,South,189,4.0,10.0,-999,-99.99,,,-99.99,,2013-10-04 01:50:00,
2013-10-03 18:52:00,71.0,-99.9,29.76,South,180,5.0,8.0,-999,-99.99,,,-99.99,,2013-10-04 01:52:00,
2013-10-03 19:12:00,70.0,-99.9,29.79,South,189,4.0,10.0,-999,-99.99,,,-99.99,,2013-10-04 02:12:00,
2013-10-03 19:22:00,70.0,-99.9,29.79,South,189,4.0,10.0,-999,-99.99,,,-99.99,,2013-10-04 02:22:00,
2013-10-03 19:33:00,70.0,-99.9,29.79,South,189,4.0,10.0,-999,-99.99,,,-99.99,,2013-10-04 02:33:00,
2013-10-03 22:00:00,67.0,-99.9,29.81,SW,227,1.0,3.0,-999,-99.99,,,-99.99,,2013-10-04 05:00:00,
2013-10-03 22:41:00,67.0,-99.9,29.81,SW,227,1.0,3.0,-999,-99.99,,,-99.99,,2013-10-04 05:41:00,
2013-10-03 23:29:00,67.0,-99.9,29.82,NNW,338,0.0,1.0,-999,-99.99,,,-99.99,,2013-10-04 06:29:00,